Location: Boston
(42.3580°N, 71.0600°W)
Time: 04:25:05
(UTC-05:00)

Envisat - Pass Details

Date: 10 October 2017
Orbit: 764 x 766 km, 98.2° (Epoch: 12 December)

Event Time Altitude Azimuth Distance (km) Brightness Sun altitude
Exits shadow 19:27:33 23° 82° (E) 1,596 4.1 -15.1°
Maximum altitude 19:28:29 24° 65° (ENE) 1,546 4.1 -15.3°
Drops below altitude 10° 19:32:30 10° 13° (NNE) 2,314 5.4 -16.0°
Sets 19:35:11 0° 360° (N) 3,245 6.3 -16.5°
